Regional Weather Roundup
Issued by NWS Grand Forks, ND

Home | Current Version | Previous Version | Text Only | Print | Product List | Glossary Off
Versions: 1 2 3 4 5 6 7 8 9 10 11 12 13 14 15 16 17 18 19 20 21 22 23 24 25 26 27 28 29 30 31 32 33 34 35 36 37 38 39 40 41 42 43 44 45 46 47 48 49 50

000
ASUS43 KFGF 200010
RWRFGF
PRAIRIE TO PINES  WEATHER ROUNDUP
NATIONAL WEATHER SERVICE EASTERN NORTH DAKOTA/GRAND FORKS ND
700 PM CDT SAT APR 19 2014

 **SATELLITE DATA USED TO AUGMENT SKY COVER AT AUTOMATED STATIONS**
 *****  WEATHER ACROSS EASTERN NORTH DAKOTA  *****

CITY           SKY/WX    TMP DP  RH WIND       PRES   REMARKS
GRAND FORKS    MOSUNNY   56  40  55 W21       29.93R
6HR MIN TEMP:  56; 6HR MAX TEMP:  63;

GRAND FRKS AFB MOSUNNY   55  39  55 W16       29.94R
GRAND FRKS NWS   N/A     55 N/A N/A NW23        N/A
DEVILS LAKE    SUNNY     52  34  50 W17       29.93R
6HR MIN TEMP:  48; 6HR MAX TEMP:  55;

FARGO          SUNNY     67  31  26 W10       29.91R
WAHPETON ARPT  CLEAR     66  27  22 W13       29.94S
$$

 ***** WEATHER ACROSS CENTRAL AND WESTERN NORTH DAKOTA  *****

CITY           SKY/WX    TMP DP  RH WIND       PRES   REMARKS
BISMARCK       SUNNY     63  34  33 NW12      29.96R
6HR MIN TEMP:  61; 6HR MAX TEMP:  67;

MINOT          SUNNY     54  33  45 NW12      29.93R
6HR MIN TEMP:  47; 6HR MAX TEMP:  55; 6HR PCP: TRACE;

JAMESTOWN      SUNNY     60  39  45 NW14      29.93R
6HR MIN TEMP:  60; 6HR MAX TEMP:  67;

MINOT AFB      SUNNY     53  34  48 NW15      29.92R
GARRISON         N/A     58  34  40 W13G21    29.93S
WILLISTON      MOSUNNY   58  33  39 SW10      29.92S
6HR MIN TEMP:  51; 6HR MAX TEMP:  60;

DICKINSON      SUNNY     60  29  30 W10       29.93R
6HR MIN TEMP:  56; 6HR MAX TEMP:  62;

HETTINGER      SUNNY     62  24  23 W18       29.97R
6HR MIN TEMP:  59; 6HR MAX TEMP:  64;

$$

 *****  OTHER AIRPORT OBSERVATIONS IN OUR AREA  *****

CITY           SKY/WX    TMP DP  RH WIND       PRES   REMARKS
WALHALLA         N/A     50  34  53 W15G28    29.90R
GRAFTON AIRPOR FAIR      52  36  54 W20G28    29.92R
VALLEY CITY AR FAIR      59  39  47 NW14      29.94R
CANDO          FAIR      48  32  53 W22G29    29.92S
CAVALIER APRT  FAIR      52  36  54 NW16G23   29.90R
GWINNER        CLEAR     68  32  26 W14G20    29.95R
SHEYENNE NWR     N/A     70  29  22 W7        29.95S
ROLLA          MOCLDY    45  32  61 W16       29.93R
 ***** THE ABOVE OBSERVATIONS ARE NON NWS ARE NOT QUALITY
       CONTROLLED AND MAY MIS-REPORT RAIN FOR SNOW...
$$

  *****  WEATHER ACROSS NORTHERN MINNESOTA  *****

CITY           SKY/WX    TMP DP  RH WIND       PRES   REMARKS
FLAG ISLAND    CLOUDY    52  37  58 SW14      29.83R
WARROAD        PTSUNNY   54  43  66 W14       29.87R
ROSEAU         CLOUDY    54  43  66 W14G21    29.88R
HALLOCK        CLOUDY    54  39  58 W14       29.90R
THF RVR FALLS  SUNNY     55  39  54 W21       29.92R
6HR MIN TEMP:  55; 6HR MAX TEMP:  61;

BAUDETTE       CLOUDY    56  39  53 W9G20     29.87R
6HR MIN TEMP:  53; 6HR MAX TEMP:  61;

WASKISH        SUNNY     50  36  57 SW14G20   29.89R
CROOKSTON      SUNNY     57  41  54 NW17G25   29.93R
$$
  *****  WEATHER ACROSS CENTRAL AND WEST MINNESOTA  *****

CITY           SKY/WX    TMP DP  RH WIND       PRES   REMARKS
FOSSTON        SUNNY     63  34  34 W12G18    29.92S
BEMIDJI        SUNNY     62  32  32 W13G21    29.91R
PARK RAPIDS    SUNNY     62  31  31 W13       29.94R
6HR MIN TEMP:  59; 6HR MAX TEMP:  67;

ELBOW LAKE     FAIR      65  32  29 NW9       29.96R
6HR MIN TEMP:  63; 6HR MAX TEMP:  69;

WADENA         SUNNY     63  34  34 W9        29.95R
DETROIT LAKES  SUNNY     63  30  29 W9        29.95S
MOORHEAD       NOT AVBL
FERGUS FALLS   SUNNY     64  27  24 W10       29.92R
MORRIS MN      MOSUNNY   68  30  24 W10       29.96R
STAPLES        SUNNY     63  28  27 W9        29.95R
$$
  *****  WEATHER ELSEWHERE ACROSS MINNESOTA  *****

CITY           SKY/WX    TMP DP  RH WIND       PRES   REMARKS
DULUTH         PTCLDY    42  32  67 SE8       29.99S
6HR MIN TEMP:  36; 6HR MAX TEMP:  44; 6HR PCP: TRACE;

INTRNTL FALLS  SUNNY     60  30  32 SW10G21   29.86R
6HR MIN TEMP:  41; 6HR MAX TEMP:  62;

ELY            CLEAR     46  36  66 S10       29.94F
CLOQUET        PTCLDY    46  34  61 E5        29.98S
WHEATON        MOSUNNY   70  36  28 W8        29.97R
BRAINERD       SUNNY     70  24  17 W12       29.94R
6HR MIN TEMP:  57; 6HR MAX TEMP:  71;

HIBBING        SUNNY     58  40  51 S8G18     29.93R
6HR MIN TEMP:  43; 6HR MAX TEMP:  59;

ALEXANDRIA     MOSUNNY   65  30  27 W9        29.97R
6HR MIN TEMP:  58; 6HR MAX TEMP:  67;

SAINT CLOUD    PTSUNNY   60  48  64 S6        29.97R
6HR MIN TEMP:  51; 6HR MAX TEMP:  63; 6HR PCP:  0.01;

MINNEAPOLIS    CLOUDY    60  52  74 SE14      29.97F
6HR MIN TEMP:  57; 6HR MAX TEMP:  67; 6HR PCP: TRACE;

$$

  *****  WEATHER ACROSS SOUTH DAKOTA  *****

CITY           SKY/WX    TMP DP  RH WIND       PRES   REMARKS
SIOUX FALLS    CLOUDY    66  32  28 N7        29.98S
6HR MIN TEMP:  66; 6HR MAX TEMP:  71;

BROOKINGS      NOT AVBL
WATERTOWN      PTSUNNY   66  23  19 W8        29.98S
6HR MIN TEMP:  58; 6HR MAX TEMP:  67;

HURON          PTSUNNY   66  25  21 SW5       29.98S
6HR MIN TEMP:  64; 6HR MAX TEMP:  70;

SISSETON         N/A     67  29  24 NW10      29.94S
ABERDEEN       MOSUNNY   68  24  19 SW13      29.95S
6HR MIN TEMP:  65; 6HR MAX TEMP:  70;

MITCHELL       MOSUNNY   68  23  18 CALM      30.00S
PIERRE         PTSUNNY   67  21  17 VRB3      29.98R
6HR MIN TEMP:  60; 6HR MAX TEMP:  69;

MOBRIDGE       SUNNY     67  25  20 W12       29.93S
RAPID CITY     MOSUNNY   63  34  33 SE16      29.98S
6HR MIN TEMP:  58; 6HR MAX TEMP:  66;

$$

  *****  SOME WEATHER IN NEARBY STATES *****

CITY           SKY/WX    TMP DP  RH WIND       PRES   REMARKS
GLASGOW MT     SUNNY     62  28  27 S8        29.86F
6HR MIN TEMP:  49; 6HR MAX TEMP:  63;

GREAT FALLS MT MOSUNNY   62   8  12 SW16      29.80F
6HR MIN TEMP:  55; 6HR MAX TEMP:  64;

CHEYENNE WY    MOSUNNY   60  36  40 S16       30.04R
6HR MIN TEMP:  55; 6HR MAX TEMP:  63;

SCOTTSBLUFF NE MOSUNNY   66  33  29 SE9       29.99F
6HR MIN TEMP:  57; 6HR MAX TEMP:  67;

OMAHA NE       PTSUNNY   78  43  28 S16       29.95S
6HR MIN TEMP:  74; 6HR MAX TEMP:  80;

DES MOINES IA  PTSUNNY   74  42  31 S12G20    30.05R
6HR MIN TEMP:  73; 6HR MAX TEMP:  78;

DAVENPORT IA   PTCLDY    70  32  24 S16       30.14F
6HR MIN TEMP:  68; 6HR MAX TEMP:  75;

CHICAGO IL     CLOUDY    60  35  39 E10       30.22S
6HR MIN TEMP:  58; 6HR MAX TEMP:  66;

EAU CLAIRE WI  CLOUDY    64  39  39 S9        30.02F
6HR MIN TEMP:  61; 6HR MAX TEMP:  66; 6HR PCP: TRACE;

LA CROSSE WI   MOCLDY    68  38  33 S12       30.06F
6HR MIN TEMP:  61; 6HR MAX TEMP:  70;

$$

  *****  SOME NATIONAL WEATHER *****

CITY           SKY/WX    TMP DP  RH WIND       PRES   REMARKS
LA GUARDIA NY  MOCLDY    59  25  27 E7        30.26R
6HR MIN TEMP:  58; 6HR MAX TEMP:  65;

RALEIGH NC     CLOUDY    52  43  71 NE9       30.20R
6HR MIN TEMP:  50; 6HR MAX TEMP:  53;

ATLANTA GA     CLOUDY    58  50  75 NE18G29   30.14R
6HR MIN TEMP:  58; 6HR MAX TEMP:  63; 6HR PCP: TRACE;

NEW ORLEANS LA PTCLDY    73  55  53 NW7       30.09R
6HR MIN TEMP:  72; 6HR MAX TEMP:  78;

OKLAHOMA CITY  CLOUDY    74  49  41 S17       30.06R
6HR MIN TEMP:  74; 6HR MAX TEMP:  80;

ALBUQUERQUE NM PTSUNNY   60  42  51 SW7       30.08R
6HR MIN TEMP:  55; 6HR MAX TEMP:  61; 6HR PCP: TRACE;

SALT LAKE CITY PTSUNNY   69  37  30 N7        29.97S
6HR MIN TEMP:  63; 6HR MAX TEMP:  72;

LOS ANGELES CA PTSUNNY   64  55  72 W15       29.99S
6HR MIN TEMP:  64; 6HR MAX TEMP:  67;




USA.gov is the U.S. government's official web portal to all federal, state and local government web resources and services.